Weather History for MMCL - February, 2013

Change the Weather History Date:

Sunday, February 24, 2013

  Actual Average Record
Temperature  
Mean Temperature 63 °F -  
Max Temperature 78 °F 83 °F - ()
Min Temperature 49 °F 55 °F - ()
Degree Days  
Heating Degree Days 2    
Growing Degree Days 13 (Base 50)    
Moisture  
Dew Point 53 °F    
Average Humidity 68    
Maximum Humidity 100    
Minimum Humidity 34    
Precipitation  
Precipitation 0.00 in - - ()
Sea Level Pressure  
Sea Level Pressure 29.94 in    
Wind  
Wind Speed 1 mph ()    
Max Wind Speed 12 mph    
Max Gust Speed -    
Visibility 8.0 miles    
Events Fog    
T = Trace of Precipitation, MM = Missing Value Source: Averaged Metar Reports

Daily Weather History Graph

Daily Weather History Graph

Search for Another Location

Airport or City:

Trip Planner

Search our weather history database for the weather conditions in past years. The results will help you decide how hot, cold, wet, or windy it might be!

Date:

Astronomy

Feb. 24, 2013 Rise Set
Actual Time 6:36 AM MST 6:09 PM MST
Civil Twilight 6:13 AM MST 6:32 PM MST
Nautical Twilight 5:47 AM MST 6:59 PM MST
Astronomical Twilight 5:20 AM MST 7:25 PM MST
Moon 5:23 PM MST (2/24) 5:33 AM MST (2/24)
Length of Visible Light 12h 19m
Length of Day
11h 33m
Waxing Gibbous, 99% of the Moon is Illuminated
Feb 24
Waxing Gibbous
Feb 25
Full
Mar 4
Last Quarter
Mar 11
New
Mar 19
First Quarter

Hourly Weather History & Observations

Time (MST) Temp. Dew Point Humidity Pressure Visibility Wind Dir Wind Speed Gust Speed Precip Events Conditions
1:35 AM 54 °F 53 °F 96% 29.97 in 6 mi Calm Calm - -  
4:35 AM 53 °F 53 °F 99% 29.98 in 6 mi Calm Calm - -  
5:50 AM 53.6 °F 53.6 °F 100% 29.91 in 0.1 mi Calm Calm - N/A Fog Fog
6:45 AM 51.8 °F 51.8 °F 100% 29.92 in 0.2 mi Calm Calm - N/A Fog Fog
7:35 AM 53 °F 52 °F 96% 30.01 in 10 mi South 2.2 mph - -   Haze
7:43 AM 51.8 °F 50.0 °F 94% 29.93 in 4.0 mi Calm Calm - N/A   Scattered Clouds
8:41 AM 59.0 °F 53.6 °F 82% 29.98 in 7.0 mi Calm Calm - N/A   Mostly Cloudy
9:42 AM 68.0 °F 53.6 °F 60% 29.97 in 7.0 mi Calm Calm - N/A   Overcast
10:40 AM 68 °F 56 °F 57% 29.99 in 10 mi South 2.2 mph - -   Haze
10:45 AM 71.6 °F 55.4 °F 57% 29.96 in 10.0 mi Calm Calm - N/A   Overcast
11:41 AM 73.4 °F 57.2 °F 57% 29.96 in 10.0 mi Calm Calm - N/A   Overcast
12:42 PM 73.4 °F 57.2 °F 57% 29.94 in 10.0 mi Calm Calm - N/A   Overcast
1:40 PM 73 °F 50 °F 34% 29.95 in 10 mi WSW 4.5 mph - -   Haze
1:40 PM 75.2 °F 55.4 °F 50% 29.89 in 10.0 mi Calm Calm - N/A   Overcast
2:40 PM 77.0 °F 53.6 °F 44% 29.89 in 10.0 mi Calm Calm - N/A   Mostly Cloudy
3:42 PM 77.0 °F 53.6 °F 44% 29.88 in 10.0 mi Calm Calm - N/A   Mostly Cloudy
4:40 PM 77.0 °F 53.6 °F 44% 29.88 in 10.0 mi WSW 11.5 mph - N/A   Mostly Cloudy
5:42 PM 75.2 °F 55.4 °F 50% 29.89 in 10.0 mi WNW 11.5 mph - N/A   Mostly Cloudy
6:41 PM 68.0 °F 53.6 °F 60% 29.91 in 10.0 mi NNW 6.9 mph - N/A   Mostly Cloudy
7:40 PM 60 °F 45 °F 47% 29.97 in 6 mi SW 2.2 mph - -   Mostly Cloudy
7:40 PM 64.4 °F 55.4 °F 73% 29.91 in 10.0 mi Calm Calm - N/A   Mostly Cloudy
8:41 PM 62.6 °F 57.2 °F 82% 29.93 in 10.0 mi Calm Calm - N/A   Mostly Cloudy
9:40 PM 60.8 °F 51.8 °F 72% 29.94 in 10.0 mi Calm Calm - N/A   Mostly Cloudy
10:40 PM 55 °F 49 °F 73% 29.99 in 6 mi SW 2.2 mph - -   Overcast